Weather History for Wauseon Fulton County Airport, OH

Change the Weather History Date:

Thursday, August 14, 2014

  Actual Average (KTOL) Record (KTOL)
Temperature  
Mean Temperature 61 °F 72 °F  
Max Temperature 71 °F 83 °F 96 °F (1947)
Min Temperature 51 °F 61 °F 39 °F (1964)
Degree Days  
Heating Degree Days 4 0  
Month to date heating degree days 0  
Since 1 June heating degree days 38  
Since 1 July heating degree days 3  
Cooling Degree Days 0 7  
Month to date cooling degree days 107  
Year to date cooling degree days 595  
Since 1 June cooling degree days 542  
Growing Degree Days 11 (Base 50)    
Moisture  
Dew Point 48 °F    
Average Humidity 66    
Maximum Humidity 94    
Minimum Humidity 38    
Precipitation  
Precipitation 0.00 in 0.10 in 2.42 in (1972)
Month to date precipitation 1.47  
Year to date precipitation 21.64  
Snow  
Snow 0.00 in 0.00 in - ()
Month to date snowfall 0.0  
Since 1 June snowfall 0.0  
Since 1 July snowfall 0.0  
Snow Depth -    
Sea Level Pressure  
Sea Level Pressure 30.03 in    
Wind  
Wind Speed 7 mph (NNW)    
Max Wind Speed 12 mph    
Max Gust Speed 20 mph    
Visibility 10 miles    
Events      
T = Trace of Precipitation, MM = Missing Value Source: NWS Daily Summary

Daily Weather History Graph

Daily Weather History Graph

Search for Another Location

Airport:

Trip Planner

Search our weather history database for the weather conditions in past years. The results will help you decide how hot, cold, wet, or windy it might be!

Date:

Astronomy

Aug. 14, 2014 Rise Set
Actual Time 6:44 AM EDT 8:37 PM EDT
Civil Twilight 6:14 AM EDT 9:07 PM EDT
Nautical Twilight 5:37 AM EDT 9:43 PM EDT
Astronomical Twilight 4:58 AM EDT 10:23 PM EDT
Moon 10:55 PM EDT (8/14) 11:24 AM EDT (8/14)
Length of Visible Light 14h 53m
Length of Day
13h 53m
Waning Gibbous, 79% of the Moon is Illuminated
Aug 14
Waning Gibbous
Aug 17
Last Quarter
Aug 25
New
Sep 2
First Quarter
Sep 8
Full

Hourly Weather History & Observations

Time (EDT) Temp. Dew Point Humidity Pressure Visibility Wind Dir Wind Speed Gust Speed Precip Events Conditions
12:15 AM 60.8 °F 55.4 °F 82% 29.99 in 10.0 mi NW 6.9 mph - N/A   Partly Cloudy
12:55 AM 59.0 °F 55.4 °F 88% 30.00 in 10.0 mi NW 6.9 mph - N/A   Clear
1:15 AM 59.0 °F 55.4 °F 88% 30.00 in 10.0 mi NW 6.9 mph - N/A   Clear
1:35 AM 57.2 °F 53.6 °F 88% 30.01 in 10.0 mi NW 6.9 mph - N/A   Clear
1:55 AM 57.2 °F 53.6 °F 88% 30.00 in 10.0 mi NW 5.8 mph - N/A   Clear
2:15 AM 57.2 °F 53.6 °F 88% 30.00 in 10.0 mi NNW 6.9 mph - N/A   Clear
2:35 AM 57.2 °F 53.6 °F 88% 30.00 in 10.0 mi NNW 6.9 mph - N/A   Clear
2:55 AM 57.2 °F 51.8 °F 82% 30.01 in 10.0 mi NNW 8.1 mph - N/A   Clear
3:15 AM 57.2 °F 51.8 °F 82% 30.01 in 10.0 mi North 8.1 mph - N/A   Clear
3:35 AM 57.2 °F 51.8 °F 82% 30.01 in 10.0 mi North 6.9 mph - N/A   Clear
3:55 AM 57.2 °F 50.0 °F 77% 30.01 in 10.0 mi North 9.2 mph - N/A   Clear
4:15 AM 57.2 °F 50.0 °F 77% 30.01 in 10.0 mi North 8.1 mph - N/A   Clear
4:35 AM 55.4 °F 50.0 °F 82% 30.02 in 10.0 mi North 5.8 mph - N/A   Clear
4:55 AM 55.4 °F 50.0 °F 82% 30.02 in 10.0 mi NNW 5.8 mph - N/A   Clear
5:15 AM 53.6 °F 50.0 °F 88% 30.02 in 10.0 mi NNW 4.6 mph - N/A   Clear
5:35 AM 53.6 °F 50.0 °F 88% 30.02 in 10.0 mi North 6.9 mph - N/A   Clear
5:55 AM 53.6 °F 50.0 °F 88% 30.03 in 10.0 mi North 5.8 mph - N/A   Clear
6:15 AM 53.6 °F 50.0 °F 88% 30.03 in 10.0 mi North 6.9 mph - N/A   Partly Cloudy
6:35 AM 53.6 °F 50.0 °F 88% 30.04 in 10.0 mi North 6.9 mph - N/A   Clear
6:55 AM 51.8 °F 50.0 °F 94% 30.04 in 10.0 mi North 6.9 mph - N/A   Clear
7:15 AM 53.6 °F 50.0 °F 88% 30.05 in 10.0 mi North 5.8 mph - N/A   Clear
7:35 AM 53.6 °F 50.0 °F 88% 30.05 in 10.0 mi North 4.6 mph - N/A   Clear
7:55 AM 53.6 °F 50.0 °F 88% 30.06 in 10.0 mi North 5.8 mph - N/A   Clear
8:15 AM 55.4 °F 50.0 °F 82% 30.07 in 10.0 mi Variable 5.8 mph 11.5 mph N/A   Clear
8:35 AM 55.4 °F 50.0 °F 82% 30.07 in 10.0 mi North 9.2 mph - N/A   Clear
8:55 AM 57.2 °F 50.0 °F 77% 30.07 in 10.0 mi North 8.1 mph 13.8 mph N/A   Clear
9:15 AM 57.2 °F 48.2 °F 72% 30.07 in 10.0 mi North 9.2 mph 16.1 mph N/A   Clear
9:35 AM 59.0 °F 48.2 °F 67% 30.08 in 10.0 mi NNE 6.9 mph 15.0 mph N/A   Clear
9:55 AM 60.8 °F 48.2 °F 63% 30.08 in 10.0 mi NNE 10.4 mph - N/A   Clear
10:15 AM 60.8 °F 46.4 °F 59% 30.08 in 10.0 mi North 11.5 mph - N/A   Clear
10:35 AM 62.6 °F 46.4 °F 55% 30.08 in 10.0 mi North 9.2 mph - N/A   Clear
10:55 AM 64.4 °F 46.4 °F 52% 30.08 in 10.0 mi North 10.4 mph - N/A   Clear
11:15 AM 64.4 °F 44.6 °F 49% 30.07 in 10.0 mi North 11.5 mph 18.4 mph N/A   Clear
11:35 AM 64.4 °F 46.4 °F 52% 30.07 in 10.0 mi NNW 9.2 mph 17.3 mph N/A   Clear
11:55 AM 66.2 °F 42.8 °F 43% 30.07 in 10.0 mi NNE 10.4 mph 17.3 mph N/A   Clear
12:15 PM 66.2 °F 44.6 °F 46% 30.06 in 10.0 mi Variable 3.5 mph 15.0 mph N/A   Clear
12:35 PM 66.2 °F 44.6 °F 46% 30.06 in 10.0 mi WNW 6.9 mph 19.6 mph N/A   Clear
12:55 PM 68.0 °F 44.6 °F 43% 30.06 in 10.0 mi NW 8.1 mph 16.1 mph N/A   Clear
1:15 PM 68.0 °F 44.6 °F 43% 30.05 in 10.0 mi NNW 8.1 mph 16.1 mph N/A   Clear
1:35 PM 68.0 °F 44.6 °F 43% 30.05 in 10.0 mi WNW 9.2 mph - N/A   Clear
1:55 PM 68.0 °F 44.6 °F 43% 30.04 in 10.0 mi North 8.1 mph 17.3 mph N/A   Clear
2:15 PM 69.8 °F 44.6 °F 40% 30.04 in 10.0 mi Variable 6.9 mph 13.8 mph N/A   Clear
2:35 PM 69.8 °F 44.6 °F 40% 30.04 in 10.0 mi NW 8.1 mph 17.3 mph N/A   Clear
2:55 PM 69.8 °F 44.6 °F 40% 30.03 in 10.0 mi Variable 4.6 mph 17.3 mph N/A   Clear
3:15 PM 69.8 °F 44.6 °F 40% 30.03 in 10.0 mi NW 10.4 mph 16.1 mph N/A   Clear
3:35 PM 71.6 °F 44.6 °F 38% 30.03 in 10.0 mi NNW 10.4 mph - N/A   Clear
3:55 PM 71.6 °F 46.4 °F 41% 30.02 in 10.0 mi Variable 6.9 mph 15.0 mph N/A   Clear
4:15 PM 71.6 °F 46.4 °F 41% 30.02 in 10.0 mi NNW 9.2 mph 17.3 mph N/A   Clear
4:35 PM 71.6 °F 44.6 °F 38% 30.02 in 10.0 mi Variable 6.9 mph 16.1 mph N/A   Clear
4:55 PM 71.6 °F 44.6 °F 38% 30.01 in 10.0 mi Variable 6.9 mph 16.1 mph N/A   Clear
5:15 PM 71.6 °F 44.6 °F 38% 30.01 in 10.0 mi NW 9.2 mph 16.1 mph N/A   Clear
5:35 PM 71.6 °F 44.6 °F 38% 30.00 in 10.0 mi WNW 9.2 mph 15.0 mph N/A   Clear
5:55 PM 71.6 °F 46.4 °F 41% 30.01 in 10.0 mi NW 8.1 mph 18.4 mph N/A   Clear
6:15 PM 69.8 °F 44.6 °F 40% 30.01 in 10.0 mi NW 10.4 mph 16.1 mph N/A   Clear
6:35 PM 69.8 °F 44.6 °F 40% 30.00 in 10.0 mi NW 11.5 mph - N/A   Clear
6:55 PM 69.8 °F 44.6 °F 40% 30.00 in 10.0 mi NW 6.9 mph 16.1 mph N/A   Clear
7:15 PM 69.8 °F 46.4 °F 43% 30.00 in 10.0 mi NW 6.9 mph 13.8 mph N/A   Clear
7:35 PM 68.0 °F 48.2 °F 49% 30.00 in 10.0 mi NW 8.1 mph - N/A   Clear
7:55 PM 66.2 °F 48.2 °F 52% 30.00 in 10.0 mi NW 5.8 mph - N/A   Clear
8:15 PM 62.6 °F 50.0 °F 63% 30.00 in 10.0 mi NW 5.8 mph - N/A   Clear
8:35 PM 60.8 °F 50.0 °F 68% 30.00 in 10.0 mi WNW 3.5 mph - N/A   Clear
8:55 PM 59.0 °F 51.8 °F 77% 30.00 in 10.0 mi Calm Calm - N/A   Clear
9:15 PM 57.2 °F 50.0 °F 77% 30.01 in 10.0 mi Calm Calm - N/A   Clear
9:35 PM 55.4 °F 50.0 °F 82% 30.01 in 10.0 mi WNW 3.5 mph - N/A   Clear
9:55 PM 55.4 °F 50.0 °F 82% 30.01 in 10.0 mi NW 3.5 mph - N/A   Clear
10:15 PM 55.4 °F 50.0 °F 82% 30.02 in 10.0 mi NW 5.8 mph - N/A   Clear
10:35 PM 53.6 °F 50.0 °F 88% 30.02 in 10.0 mi WNW 4.6 mph - N/A   Clear
10:55 PM 53.6 °F 48.2 °F 82% 30.02 in 10.0 mi WNW 5.8 mph - N/A   Clear
11:15 PM 53.6 °F 48.2 °F 82% 30.03 in 10.0 mi WNW 5.8 mph - N/A   Clear
11:35 PM 53.6 °F 50.0 °F 88% 30.04 in 10.0 mi WNW 5.8 mph - N/A   Clear
11:55 PM 53.6 °F 50.0 °F 88% 30.03 in 10.0 mi WNW 4.6 mph - N/A   Clear